ハインズ彗星

C/2017 T1 ( Heinze )

English version
Home page
Updated on January 8, 2018

---------------------------------------------------------------------

・ プロフィール

発見日 2017年10月2日
発見光度 18.2等
発見者 Aren Heinze (Asteroid Terrestrial-impact Last Alert System (ATLAS) search program)

・ 写真集

・ 軌道要素

Epoch 2018 Feb. 11.0 TT = JDT 2458160.5
T 2018 Feb. 21.71068 TT                                 MPCW
q   0.5806162            (2000.0)            P               Q
z  -0.0004457      Peri.   96.92236     +0.14108185     +0.19773698
 +/-0.0000119      Node   102.31577     -0.47699721     -0.84503825
e   1.0002588      Incl.   96.83202     +0.86750768     -0.49680020
From 609 observations 2017 Sept. 28-Dec. 31, mean residual 0".5.

・ 星図

・ 光度変化

        m1 = 13.0 + 5 logΔ + 7.5 log r

---------------------------------------------------------------------

軌道要素はM.P.E.C. 2017-Y165に掲載されたものです。
星図はステラナビゲータ Ver.10 (アストロアーツ) で作成したものです。
光度グラフはComet for Windowsで作成したものです。

---------------------------------------------------------------------

Copyright(C) Seiichi Yoshida (comet@aerith.net). All rights reserved.